Location: Newark
(36.0797°N, 3.9744°E)
Time: 23:02:48
(UTC+00:00)

Tiros 1 - Pass Details

Date: 09 December 2019
Orbit: 630 x 664 km, 48.4° (Epoch: 21 January)

Event Time Altitude Azimuth Distance (km) Brightness Sun altitude
Rises 05:12:55 0° 216° (SW) 2,957 10.3 -17.7°
Reaches altitude 10° 05:15:20 10° 211° (SSW) 2,044 9.6 -17.2°
Maximum altitude 05:19:51 47° 138° (SE) 854 8.1 -16.3°
Drops below altitude 10° 05:24:20 10° 65° (ENE) 2,031 10.4 -15.5°
Sets 05:26:42 0° 59° (ENE) 2,937 11.2 -15.0°
